{"data":{"norad_id":69073,"intl_designator":"2026-104A","name":"QIANFAN-127","alt_names":[],"object_type":"PAYLOAD","status":"ACTIVE","operator":null,"country":"PRC","launch_date":"2026-05-12","launch_site_code":"TAISC","launch_vehicle":null,"mission":null,"orbit_class":"UNKNOWN","rcs_meters":null,"size_class":null,"mass_kg":null,"dimensions":null,"purposes":[],"wikipedia_slug":null,"has_3d_model":false,"image_url":null,"decayed_at":null,"tle_current":{"epoch":"2026-09-20T03:53:22.416000Z","epoch_age_seconds":52475,"freshness":"FRESH","line1":"1 69073U 26104A   26263.16206500  .00000062  00000+0  76847-4 0  9990","line2":"2 69073  88.9922 331.7886 0002544 102.4142 257.7294 13.51028181 17981","mean_motion":13.51028181,"eccentricity":0.0002544,"inclination_deg":88.9922,"raan_deg":331.7886,"arg_perigee_deg":102.4142,"mean_anomaly_deg":257.7294,"bstar":7.6847e-5,"rev_number":1798,"period_min":106.58548949987,"perigee_km":1066.5836123084,"apogee_km":1070.3724500362,"semimajor_km":7446.6150311723,"source":"CELESTRAK","updated_at":"2026-09-20T09:00:24.641591Z"}}}